Location: Bremen
(53.0793°N, 8.8017°E)
Time: 08:29:48
(UTC+01:00)

Explorer 7 - Pass Details

Date: 28 November 2021
Orbit: 483 x 674 km, 50.3° (Epoch: 17 January)

Event Time Altitude Azimuth Distance (km) Brightness Sun altitude
Rises 09:08:55 0° 231° (SW) 2,704 10.3 5.6°
Reaches altitude 10° 09:11:20 10° 222° (SW) 1,781 9.5 5.8°
Maximum altitude 09:14:58 33° 157° (SSE) 873 9.0 6.2°
Drops below altitude 10° 09:18:28 10° 92° (E) 1,707 10.1 6.5°
Sets 09:20:44 0° 83° (E) 2,573 10.7 6.8°
